Find Starlink 33568

NORAD ID: 62779 Int'l Des: 2025-015 Owner: SPXS Country: US Constellation: starlink operational
LEOCIRCULAR

Live Position

Loading 3D Globe...

About Starlink 33568

Description loading...

Upcoming Passes

Passes for default location (London). Set your location on the main map for personalized predictions.

Altitude History

Loading altitude history...

Two-Line Element Set

1 62779U 25015X 26106.39181626 .00010625 00000-0 37032-3 0 9997
2 62779 53.1586 147.3250 0001057 84.2779 275.8342 15.30202119 70094
Epoch: Apr 16, 2026 • Age: 22 hours

Current Status

Altitude 478.1 km
Velocity 7.63 km/s
Sub-Earth Point -10.57°S, 179.72°W
Launch Date Jan 21, 2025
Age 1.2 years
Type internet

Technical Details

Classification Payload
Mass 575.00 kg
Dry Mass 530.00 kg
Total Mass 575.00 kg
Length 0.30 m
Diameter 4.10 m
Span 29.00 m
Shape Box + pan
Manufacturer SPXS
Bus Type Starlink V2MO
Phase Status In Orbit
Owner/State SPXS/US

Most Searched